| time (UTC) | temp C | wind direction | speed KPH | gust KPH | rain 1hr cm | rain 24hr cm | rain mn cm | humidity % | barometer mb |
| 20260906021508 | 21 | 360 | 6.4 | 9.7 | 0.00 | 0.00 | 0.00 | 93 | 1014.3 |
| 20260906020010 | 21 | 360 | 4.8 | 8.0 | 0.00 | 0.00 | 0.00 | 93 | 1014.2 |
| 20260906014507 | 22 | 360 | 3.2 | 6.4 | 0.00 | 0.00 | 0.00 | 92 | 1014.2 |
| 20260906013003 | 22 | 360 | 3.2 | 6.4 | 0.00 | 0.00 | 0.00 | 92 | 1014.1 |
| 20260906011608 | 22 | 360 | 3.2 | 8.0 | 0.00 | 0.00 | 0.00 | 91 | 1014.0 |
| 20260906010059 | 22 | 360 | 3.2 | 6.4 | 0.00 | 0.00 | 0.00 | 91 | 1014.0 |
| 20260906004604 | 23 | 360 | 3.2 | 6.4 | 0.00 | 0.00 | 0.00 | 90 | 1013.8 |
| 20260906003102 | 23 | 360 | 1.6 | 6.4 | 0.00 | 0.00 | 0.00 | 89 | 1013.6 |
| 20260906001555 | 24 | 360 | 1.6 | 6.4 | 0.00 | 0.00 | 0.00 | 87 | 1013.5 |
| 20260906000058 | 25 | 360 | 4.8 | 8.0 | 0.00 | 0.00 | 0.00 | 86 | 1013.4 |
| 20260905234552 | 25 | 360 | 6.4 | 12.9 | 0.00 | 0.00 | 0.00 | 85 | 1013.4 |
| 20260905233052 | 26 | 360 | 4.8 | 9.7 | 0.00 | 0.00 | 0.00 | 84 | 1013.2 |
| 20260905231553 | 26 | 360 | 4.8 | 9.7 | 0.00 | 0.00 | 0.00 | 83 | 1013.0 |
| 20260905230054 | 27 | 360 | 4.8 | 9.7 | 0.00 | 0.00 | 0.00 | 83 | 1012.9 |
| 20260905224553 | 27 | 360 | 4.8 | 9.7 | 0.00 | 0.00 | 0.00 | 82 | 1013.0 |
| 20260905223050 | 27 | 360 | 6.4 | 16.1 | 0.00 | 0.00 | 0.00 | 80 | 1012.8 |
| 20260905221552 | 28 | 53 | 6.4 | 16.1 | 0.00 | 0.00 | 0.00 | 79 | 1012.7 |
| 20260905220049 | 28 | 40 | 8.0 | 17.7 | 0.00 | 0.00 | 0.00 | 79 | 1012.5 |
| 20260905214548 | 29 | 52 | 8.0 | 16.1 | 0.00 | 0.00 | 0.00 | 77 | 1012.6 |
| 20260905213048 | 30 | 40 | 6.4 | 14.5 | 0.00 | 0.00 | 0.00 | 77 | 1012.3 |
| 20260905211552 | 31 | 42 | 9.7 | 16.1 | 0.00 | 0.00 | 0.00 | 74 | 1012.2 |
| 20260905210050 | 31 | 53 | 8.0 | 14.5 | 0.00 | 0.00 | 0.00 | 74 | 1012.2 |
| 20260905204547 | 31 | 31 | 11.3 | 20.9 | 0.00 | 0.00 | 0.00 | 73 | 1012.2 |
| 20260905203046 | 31 | 17 | 6.4 | 20.9 | 0.00 | 0.00 | 0.00 | 74 | 1012.3 |
| 20260905201545 | 31 | 11 | 6.4 | 17.7 | 0.00 | 0.00 | 0.00 | 75 | 1012.4 |
| 20260905200044 | 31 | 11 | 4.8 | 14.5 | 0.00 | 0.00 | 0.00 | 73 | 1012.3 |
| 20260905194543 | 31 | 322 | 4.8 | 14.5 | 0.00 | 0.00 | 0.00 | 74 | 1012.3 |
| 20260905193043 | 32 | 12 | 4.8 | 12.9 | 0.00 | 0.00 | 0.00 | 73 | 1012.4 |
| 20260905191542 | 32 | 26 | 4.8 | 14.5 | 0.00 | 0.00 | 0.00 | 74 | 1012.3 |
| 20260905190041 | 31 | 31 | 3.2 | 14.5 | 0.00 | 0.00 | 0.00 | 77 | 1012.4 |
| 20260905184557 | 31 | 28 | 6.4 | 14.5 | 0.00 | 0.00 | 0.00 | 76 | 1012.6 |
| 20260905183047 | 31 | 21 | 3.2 | 9.7 | 0.00 | 0.00 | 0.00 | 78 | 1012.7 |
| 20260905181547 | 31 | 34 | 6.4 | 16.1 | 0.00 | 0.00 | 0.00 | 77 | 1012.8 |
| 20260905180043 | 31 | 322 | 3.2 | 14.5 | 0.00 | 0.00 | 0.00 | 77 | 1012.8 |
| 20260905174538 | 31 | 31 | 3.2 | 16.1 | 0.00 | 0.00 | 0.00 | 76 | 1012.7 |
| 20260905173038 | 32 | 30 | 4.8 | 12.9 | 0.00 | 0.00 | 0.00 | 75 | 1012.8 |
| 20260905171540 | 32 | 28 | 3.2 | 12.9 | 0.00 | 0.00 | 0.00 | 75 | 1012.8 |
| 20260905170035 | 31 | 25 | 6.4 | 16.1 | 0.00 | 0.00 | 0.00 | 76 | 1013.0 |
| 20260905164534 | 31 | 360 | 6.4 | 19.3 | 0.00 | 0.00 | 0.00 | 77 | 1013.1 |
| 20260905163030 | 31 | 360 | 4.8 | 12.9 | 0.00 | 0.00 | 0.00 | 76 | 1013.1 |
| 20260905161529 | 30 | 360 | 4.8 | 12.9 | 0.00 | 0.00 | 0.00 | 78 | 1013.0 |
| 20260905160028 | 30 | 360 | 3.2 | 12.9 | 0.00 | 0.00 | 0.00 | 81 | 1013.0 |
| 20260905154523 | 30 | 34 | 3.2 | 9.7 | 0.00 | 0.00 | 0.00 | 83 | 1013.1 |
| 20260905153021 | 30 | 36 | 3.2 | 9.7 | 0.00 | 0.00 | 0.00 | 83 | 1013.0 |
| 20260905151523 | 30 | 23 | 3.2 | 9.7 | 0.00 | 0.00 | 0.00 | 83 | 1013.0 |
| 20260905150017 | 29 | 26 | 4.8 | 9.7 | 0.00 | 0.00 | 0.00 | 83 | 1013.0 |
| 20260905144513 | 28 | 360 | 3.2 | 6.4 | 0.00 | 0.00 | 0.00 | 83 | 1012.8 |
| 20260905143010 | 28 | 360 | 1.6 | 6.4 | 0.00 | 0.00 | 0.00 | 86 | 1012.8 |
| 20260905141507 | 27 | 360 | 3.2 | 6.4 | 0.00 | 0.00 | 0.00 | 86 | 1012.5 |
| 20260905140005 | 27 | 360 | 1.6 | 4.8 | 0.00 | 0.00 | 0.00 | 88 | 1012.6 |
| 20260905134600 | 26 | 360 | 1.6 | 6.4 | 0.00 | 0.00 | 0.00 | 90 | 1013.0 |
| 20260905133056 | 26 | 360 | 0.0 | 3.2 | 0.00 | 0.00 | 0.00 | 91 | 1013.0 |
| 20260905131553 | 25 | 360 | 3.2 | 6.4 | 0.00 | 0.00 | 0.00 | 93 | 1012.8 |
| 20260905130052 | 25 | 360 | 3.2 | 6.4 | 0.00 | 0.00 | 0.00 | 94 | 1012.6 |
| 20260905124551 | 24 | 360 | 1.6 | 6.4 | 0.00 | 0.00 | 0.00 | 95 | 1012.5 |
| 20260905123056 | 24 | 360 | 0.0 | 3.2 | 0.00 | 0.00 | 0.00 | 95 | 1012.5 |
| 20260905121550 | 23 | 360 | 0.0 | 4.8 | 0.00 | 0.00 | 0.00 | 96 | 1012.4 |
| 20260905120050 | 23 | 360 | 0.0 | 6.4 | 0.00 | 0.00 | 0.00 | 96 | 1012.1 |
| 20260905114549 | 23 | 360 | 3.2 | 6.4 | 0.00 | 0.00 | 0.00 | 96 | 1011.9 |
| 20260905113051 | 23 | 360 | 1.6 | 6.4 | 0.00 | 0.00 | 0.00 | 96 | 1011.9 |
| 20260905111634 | 23 | 360 | 3.2 | 4.8 | 0.00 | 0.00 | 0.00 | 95 | 1011.8 |
| 20260905110045 | 23 | 360 | 3.2 | 6.4 | 0.00 | 0.00 | 0.00 | 95 | 1011.7 |
| 20260905104544 | 23 | 360 | 0.0 | 4.8 | 0.00 | 0.00 | 0.00 | 95 | 1011.7 |
| 20260905103043 | 23 | 360 | 3.2 | 6.4 | 0.00 | 0.00 | 0.00 | 95 | 1011.8 |
| 20260905101550 | 23 | 360 | 3.2 | 4.8 | 0.00 | 0.00 | 0.00 | 95 | 1011.8 |
| 20260905100047 | 23 | 360 | 3.2 | 6.4 | 0.00 | 0.00 | 0.00 | 94 | 1012.0 |
| 20260905094539 | 23 | 360 | 1.6 | 4.8 | 0.00 | 0.00 | 0.00 | 94 | 1011.9 |
| 20260905093038 | 23 | 360 | 0.0 | 4.8 | 0.00 | 0.00 | 0.00 | 94 | 1011.8 |
| 20260905091538 | 23 | 360 | 1.6 | 4.8 | 0.00 | 0.00 | 0.00 | 94 | 1011.8 |
| 20260905090040 | 24 | 360 | 0.0 | 3.2 | 0.00 | 0.00 | 0.00 | 94 | 1011.8 |
| 20260905084542 | 23 | 360 | 0.0 | 0.0 | 0.00 | 0.00 | 0.00 | 95 | 1011.9 |
| 20260905083035 | 23 | 360 | 0.0 | 0.0 | 0.00 | 0.00 | 0.00 | 95 | 1012.0 |
| 20260905081535 | 23 | 360 | 0.0 | 0.0 | 0.00 | 0.00 | 0.00 | 95 | 1011.9 |
| 20260905080040 | 24 | 360 | 0.0 | 0.0 | 0.00 | 0.00 | 0.00 | 95 | 1011.9 |
| 20260905074538 | 24 | 360 | 0.0 | 1.6 | 0.00 | 0.00 | 0.00 | 95 | 1011.8 |
| 20260905073031 | 24 | 360 | 0.0 | 3.2 | 0.00 | 0.00 | 0.00 | 94 | 1012.0 |
| 20260905071534 | 24 | 360 | 0.0 | 3.2 | 0.00 | 0.00 | 0.00 | 95 | 1012.0 |
| 20260905070030 | 24 | 360 | 0.0 | 6.4 | 0.00 | 0.00 | 0.00 | 95 | 1012.1 |
| 20260905064529 | 24 | 360 | 3.2 | 6.4 | 0.00 | 0.00 | 0.00 | 95 | 1012.0 |
| 20260905063028 | 24 | 360 | 1.6 | 4.8 | 0.00 | 0.00 | 0.00 | 95 | 1012.2 |
| 20260905061531 | 24 | 360 | 3.2 | 4.8 | 0.00 | 0.00 | 0.00 | 94 | 1012.4 |
| 20260905060029 | 24 | 360 | 0.0 | 0.0 | 0.00 | 0.00 | 0.00 | 93 | 1012.4 |
| 20260905054522 | 25 | 360 | 0.0 | 0.0 | 0.00 | 0.00 | 0.00 | 93 | 1012.6 |
| 20260905053021 | 25 | 360 | 0.0 | 0.0 | 0.00 | 0.00 | 0.00 | 93 | 1012.6 |
| 20260905051524 | 25 | 360 | 0.0 | 3.2 | 0.00 | 0.00 | 0.00 | 93 | 1012.7 |
| 20260905050017 | 25 | 360 | 0.0 | 1.6 | 0.00 | 0.00 | 0.00 | 92 | 1012.6 |
| 20260905044515 | 25 | 360 | 0.0 | 0.0 | 0.00 | 0.00 | 0.00 | 92 | 1012.7 |
| 20260905043015 | 25 | 360 | 0.0 | 0.0 | 0.00 | 0.00 | 0.00 | 91 | 1012.7 |
| 20260905041515 | 25 | 360 | 0.0 | 0.0 | 0.00 | 0.00 | 0.00 | 91 | 1012.8 |
| 20260905040015 | 26 | 360 | 0.0 | 0.0 | 0.00 | 0.00 | 0.00 | 91 | 1012.6 |
| 20260905034515 | 26 | 360 | 0.0 | 3.2 | 0.00 | 0.00 | 0.00 | 91 | 1012.8 |
| 20260905033028 | 26 | 360 | 0.0 | 3.2 | 0.00 | 0.00 | 0.00 | 91 | 1012.9 |
| 20260905031515 | 26 | 360 | 0.0 | 0.0 | 0.00 | 0.00 | 0.00 | 91 | 1012.8 |
| 20260905030015 | 26 | 360 | 0.0 | 0.0 | 0.00 | 0.00 | 0.00 | 91 | 1012.8 |
| 20260905024512 | 26 | 360 | 0.0 | 3.2 | 0.00 | 0.00 | 0.00 | 91 | 1012.6 |
| 20260905023011 | 26 | 360 | 0.0 | 3.2 | 0.00 | 0.00 | 0.00 | 91 | 1012.3 |